This is the latest recevied weather packets stored in our database for station/object WB3IGR. If no packets are shown the sender has not sent any weather packets the latest 10 day(s).
| Time | Temp. | Humidity | Pressure | Rain* | Wind** | Luminosity | Snow |
|---|---|---|---|---|---|---|---|
| 1777721203 | 6.11° C | 87% | 1015.5 hPa | 0 mm | - | 83 W/m² | - |
| 1777720900 | 6.11° C | 88% | 1015.4 hPa | 0 mm | - | 78 W/m² | - |
| 1777720597 | 6.11° C | 89% | 1015.7 hPa | 0 mm | - | 75 W/m² | - |
| 1777720294 | 5.56° C | 90% | 1015.6 hPa | 0 mm | - | 69 W/m² | - |
| 1777719992 | 5.56° C | 91% | 1015.5 hPa | 0 mm | - | 59 W/m² | - |
| 1777719689 | 5.56° C | 93% | 1015.4 hPa | 0 mm | - | 57 W/m² | - |
| 1777719387 | 5.56° C | 95% | 1015.3 hPa | 0 mm | - | 53 W/m² | - |
| 1777719084 | 5.56° C | 96% | 1015.3 hPa | 0 mm | - | 43 W/m² | - |
| 1777718781 | 5.56° C | 97% | 1015.3 hPa | 0 mm | - | 35 W/m² | - |
| 1777718478 | 5.56° C | 97% | 1015.2 hPa | 0 mm | - | 31 W/m² | - |
| 1777718176 | 5.56° C | 97% | 1015.2 hPa | 0 mm | - | 26 W/m² | - |
| 1777717874 | 5.56° C | 97% | 1015.1 hPa | 0 mm | - | 17 W/m² | - |
| 1777717570 | 5.56° C | 96% | 1014.9 hPa | 0 mm | - | 12 W/m² | - |
| 1777717267 | 5.56° C | 96% | 1014.7 hPa | 0 mm | - | 11 W/m² | - |
| 1777716965 | 5.56° C | 96% | 1014.7 hPa | 0 mm | - | 9 W/m² | - |
| 1777716663 | 5.56° C | 96% | 1014.9 hPa | 0 mm | - | 6 W/m² | - |
| 1777716361 | 6.11° C | 96% | 1015 hPa | 0 mm | - | 3 W/m² | - |
| 1777716059 | 6.11° C | 95% | 1014.7 hPa | 0 mm | - | 0 W/m² | - |
| 1777715756 | 6.11° C | 95% | 1014.7 hPa | 0 mm | - | 0 W/m² | - |
| 1777715454 | 6.11° C | 95% | 1014.8 hPa | 0 mm | - | 0 W/m² | - |
| 1777715150 | 6.11° C | 95% | 1014.8 hPa | 0 mm | - | 0 W/m² | - |
| 1777714849 | 6.11° C | 94% | 1014.6 hPa | 0 mm | - | 0 W/m² | - |
| 1777714547 | 6.67° C | 94% | 1014.5 hPa | 0 mm | - | 0 W/m² | - |
| 1777714244 | 6.67° C | 94% | 1014.6 hPa | 0 mm | - | 0 W/m² | - |
| 1777713942 | 6.67° C | 94% | 1014.4 hPa | 0 mm | - | 0 W/m² | - |
* Rain latest hour (hover to see other rain measurements)
** Current wind speed in m/s (hover to see current wind gust speed)